Location: Lugrin
(46.4033°N, 6.6674°E)
Time: 15:37:34
(UTC+00:00)

N. Korean satellite - Pass Details

Date: 29 November 2020
Orbit: 453 x 502 km, 97.2° (Epoch: 15 January)

Event Time Altitude Azimuth Distance (km) Brightness Sun altitude
Rises 05:00:58 0° 14° (NNE) 2,554 10.3 -18.9°
Reaches altitude 10° 05:03:02 10° 16° (NNE) 1,677 9.3 -18.6°
Maximum altitude 05:06:38 72° 101° (ESE) 521 6.8 -18.0°
Drops below altitude 10° 05:10:16 10° 187° (S) 1,687 9.4 -17.3°
Sets 05:12:21 0° 189° (S) 2,571 10.3 -17.0°
